Powrót do katalogu

STARLINK-34936

AktywnyŁącznośćVLEO
NORAD 65898·PAYLOAD·🇺🇸 United States

Wystrzelony Oct 7, 2025 z Cape Canaveral Space Force Station

Loading…

Następne Przeloty (najbliższe 24 godziny)

TLE

ŚwieżeSource: CelesTrak SupGP

Epoka: Sep 14, 2026, 21:39 UTC

1 65898C 25224S   26257.90256944  .00020325  00000+0  60036-3 0  2578
2 65898  53.1575 208.1343 0001397  97.4594 302.7379 15.34388640    17

Śledź STARLINK-34936 w czasie rzeczywistym z AllMySat

Download on the App Store